RH
78 81 73 70 71 78 83 87 87 84 81 74 71 74 79 78 76 78 77 77 74 77 78 80 84 83 84 86 83 76 79 77 73 73 68 77 79 75 71 71 74 72 73 73 70 70 73 75 74 67 59 56 54 51 48 46 49 56 55 47 42 42 43 43 43 45 47 47 47 45 44 43 41 40 38 38 41 46 50 53 57 57 56 53 50 48 46 45 44 45 46 51 51 48 49 52 54
76 74 70 76 79 81 83 85 85 86 82 71 71 73 73 75 77 75 75 75 73 77 73 71 77 80 82 82 79 73 81 86 79 70 64 72 75 70 67 69 73 72 74 73 70 70 72 73 73 66 56 52 49 46 44 45 50 53 49 43 42 43 43 43 45 46 47 46 45 44 44 43 41 40 38 39 44 50 54 56 58 58 57 54 51 47 45 44 44 45 47 52 53 50 49 50 52
64 61 69 77 78 77 79 80 80 84 79 69 72 72 68 72 72 70 74 73 71 74 71 72 75 80 80 77 82 75 78 85 76 63 61 70 68 66 66 68 70 71 75 75 73 69 68 68 69 64 55 50 44 41 39 42 47 48 44 42 42 42 43 45 46 46 46 45 44 44 44 43 41 40 39 42 48 54 58 59 60 59 57 53 49 46 46 47 48 49 50 53 54 53 51 51 53
51 53 66 66 68 74 78 78 76 77 72 67 70 69 65 65 64 66 71 72 72 72 70 72 76 88 82 72 80 73 72 77 70 58 59 69 65 65 67 67 67 70 75 73 68 64 65 65 66 64 58 50 42 39 36 39 44 44 43 42 42 42 44 45 46 46 45 44 44 43 43 42 40 40 41 46 53 58 60 60 60 57 53 51 50 50 50 51 51 51 52 53 54 54 52 53 57
50 54 61 60 65 74 77 79 80 74 67 65 66 65 61 59 60 64 69 72 73 72 71 69 71 84 79 71 72 63 65 69 68 61 57 64 62 61 65 65 66 66 67 67 63 62 65 66 65 63 60 54 47 42 36 37 42 43 42 42 42 43 44 45 45 44 44 44 43 42 42 41 39 41 45 51 56 59 61 60 57 53 51 52 53 53 53 52 51 51 51 52 54 54 52 54 58
51 54 57 64 70 76 81 84 83 72 66 63 60 59 57 58 60 63 66 68 72 74 72 67 66 69 69 73 68 60 64 63 63 60 56 59 59 59 62 64 64 62 58 58 61 61 64 65 66 64 63 59 50 42 38 39 41 42 42 41 42 43 44 43 43 43 42 42 41 41 40 39 40 44 49 54 58 59 59 56 53 50 52 54 53 53 53 52 50 51 52 53 55 54 54 56 58
49 55 60 66 68 75 80 84 85 73 65 59 55 54 54 57 58 58 59 65 75 78 71 67 62 54 63 72 67 70 71 64 60 58 58 57 58 59 61 63 62 58 51 51 56 58 61 63 62 63 64 61 48 38 38 41 41 41 41 41 42 42 43 42 42 41 40 40 40 40 39 40 43 48 53 57 58 57 57 53 50 52 55 56 55 55 54 53 52 52 53 54 56 55 54 58 60
52 61 65 68 67 72 74 75 78 69 58 52 52 52 52 54 54 53 55 67 77 75 68 68 60 48 65 71 66 79 73 62 59 55 56 54 55 56 59 61 59 56 48 46 49 51 54 55 56 58 62 59 45 37 36 38 39 40 40 41 42 42 42 42 41 39 39 39 39 39 40 43 47 52 55 57 56 56 56 53 53 59 61 60 60 59 58 57 56 56 55 55 56 56 56 58 59
54 61 65 70 68 69 68 63 64 60 51 47 50 50 52 51 51 54 57 67 74 76 75 74 64 51 66 68 65 78 68 60 58 55 55 52 53 54 57 59 58 55 49 45 45 46 47 48 52 55 57 54 45 39 37 36 38 40 40 41 41 42 42 42 40 38 39 38 39 41 43 47 50 53 55 56 55 57 57 57 60 63 62 61 61 60 60 59 59 59 58 57 56 57 58 58 57
53 58 62 64 64 64 59 55 52 45 40 41 45 47 51 50 52 55 56 64 68 74 77 73 68 59 64 62 61 68 63 61 59 57 57 54 55 53 55 56 56 55 50 47 44 45 45 47 48 48 49 50 46 41 37 36 37 39 41 41 41 42 42 41 39 38 38 38 41 43 46 49 51 54 55 55 56 57 57 61 64 62 59 59 60 59 59 60 59 58 59 60 59 59 61 62 61
54 56 57 55 56 57 52 52 44 33 36 39 41 45 48 52 53 54 57 63 65 65 67 69 65 61 64 62 62 62 57 60 58 59 60 59 58 54 55 55 54 52 51 48 45 46 46 47 47 46 46 46 45 42 40 38 39 40 41 42 42 43 41 39 38 38 38 40 43 45 49 50 52 54 53 54 55 55 56 63 65 59 56 57 59 59 59 58 58 58 58 59 58 58 58 61 63
56 55 52 50 51 50 46 50 39 27 35 37 39 44 46 50 52 56 58 59 62 62 65 67 59 56 59 62 67 65 56 57 60 61 61 61 58 56 57 56 53 50 50 49 47 46 46 48 48 49 47 45 45 44 43 42 42 42 42 42 42 41 39 37 37 38 39 41 44 47 50 52 54 53 52 52 51 52 56 64 64 59 57 57 59 59 58 57 58 58 58 57 56 55 53 53 53
58 54 48 45 47 47 45 45 34 26 34 37 38 41 45 50 53 60 61 61 64 62 64 65 55 53 55 58 67 71 65 60 60 59 58 61 59 57 56 55 53 48 47 49 49 48 47 48 48 48 47 45 43 41 42 41 42 41 41 40 38 37 36 36 37 38 40 43 46 49 51 53 54 54 54 54 51 51 55 62 62 60 61 60 59 59 58 58 60 60 60 61 61 61 59 55 49
57 53 48 42 40 42 42 37 27 26 33 32 34 40 47 52 55 60 59 67 75 66 64 63 53 52 54 53 57 65 68 64 62 58 57 61 60 57 53 50 48 46 45 47 49 48 47 46 45 45 43 41 37 35 35 36 37 36 36 35 33 33 33 35 37 40 43 46 48 50 52 55 55 55 56 57 56 54 54 58 57 60 66 66 63 61 60 61 62 63 64 66 66 66 63 58 50
55 53 51 43 39 42 40 35 26 26 30 26 31 41 46 50 54 61 58 64 77 71 63 62 58 55 51 48 48 55 62 64 62 58 59 62 62 57 51 46 43 43 42 43 46 46 44 42 41 40 38 37 33 31 31 31 31 30 31 30 31 32 33 36 39 43 45 47 49 50 53 56 56 55 56 56 58 60 58 56 57 62 69 71 69 65 64 64 65 66 66 67 67 67 64 58 50
54 53 54 48 46 44 37 35 28 25 28 26 32 38 42 48 52 60 63 60 65 69 64 62 66 62 51 47 48 53 61 61 57 57 60 62 63 59 52 49 46 43 42 41 41 40 39 36 36 35 34 33 31 31 30 30 30 29 30 30 31 33 36 39 43 46 48 49 50 52 54 55 56 56 55 53 56 61 62 62 64 68 71 74 74 71 69 68 68 66 64 64 66 65 64 61 52
55 56 58 53 51 43 34 34 27 24 29 26 28 34 38 48 53 56 65 63 59 68 71 65 67 63 53 51 51 54 61 58 54 57 58 59 62 58 53 51 48 44 43 42 38 36 35 33 32 32 31 30 30 31 31 31 32 32 33 33 35 37 40 43 46 48 49 50 51 53 53 53 53 52 52 52 54 56 60 64 67 71 72 71 70 68 65 63 63 60 60 63 67 67 66 65 55
56 58 54 50 48 39 36 35 28 25 27 26 28 32 38 48 54 53 62 70 69 73 75 70 68 61 54 54 54 54 58 54 52 54 53 55 57 54 51 50 49 45 42 41 40 38 34 32 32 32 31 30 31 31 32 33 34 35 37 38 40 42 44 46 48 49 49 51 52 52 51 49 49 48 49 50 51 53 55 57 59 65 65 60 57 57 55 56 57 59 63 65 67 70 68 69 62
53 55 49 46 45 40 40 37 30 27 26 28 29 31 36 43 46 50 61 68 71 75 78 79 68 57 56 56 54 52 52 51 50 51 51 50 52 51 48 46 47 45 41 39 40 41 36 33 34 34 33 31 32 32 33 34 35 37 39 41 42 44 46 47 48 48 49 51 50 50 47 47 47 46 48 50 51 51 52 52 51 54 53 50 48 49 52 55 60 65 69 65 62 66 64 61 58
50 51 45 43 45 44 43 37 32 30 28 27 28 30 33 33 34 45 57 58 64 70 75 77 60 51 58 55 51 49 47 49 49 50 50 49 50 49 44 42 43 42 40 40 40 40 37 34 34 35 34 33 33 33 35 35 37 38 39 42 43 44 45 45 47 47 49 49 47 48 45 45 47 48 47 47 48 46 47 49 49 50 50 47 49 54 57 61 67 69 70 65 58 59 56 49 46
48 44 39 40 42 41 38 35 33 32 31 27 28 31 31 29 30 42 51 48 59 66 62 61 51 49 55 51 51 49 45 47 48 50 50 49 48 45 43 42 43 42 42 41 40 40 38 36 35 35 35 35 35 35 36 36 37 38 39 41 41 42 43 44 45 45 47 47 46 45 44 47 50 53 50 45 46 45 48 52 53 56 58 57 57 60 61 65 67 65 65 63 55 50 48 42 41
45 39 35 37 37 37 35 33 33 33 32 28 28 28 28 29 30 40 45 39 50 58 52 52 51 48 46 47 51 49 46 44 45 49 49 48 47 44 43 43 43 43 42 41 41 39 39 39 36 35 35 35 36 36 36 36 38 38 39 40 40 42 42 43 44 45 48 47 47 43 43 50 54 56 51 46 48 49 54 55 55 58 61 64 62 62 64 64 61 59 61 56 45 41 46 46 43
43 40 37 36 35 35 34 32 32 32 33 30 28 25 26 27 26 34 37 34 45 53 47 47 53 51 44 47 50 48 45 41 42 45 46 45 45 43 42 42 41 41 40 41 43 41 39 40 38 37 37 37 38 38 37 37 37 39 41 43 44 45 45 47 47 48 49 48 47 44 46 51 53 55 54 55 56 52 54 54 54 57 61 65 62 63 65 62 58 57 56 48 42 46 54 56 53
41 39 38 37 36 33 31 32 30 28 31 32 31 27 26 26 26 32 31 32 43 51 47 42 49 52 45 45 48 48 45 41 41 43 44 43 42 42 41 41 41 41 42 42 44 45 43 43 43 42 41 42 42 42 44 44 41 42 47 49 50 51 51 51 51 51 52 51 47 45 49 49 49 54 57 62 62 54 53 52 52 54 60 65 62 64 66 62 61 57 54 52 55 62 64 63 61
36 37 36 34 35 34 32 32 28 26 29 32 34 30 27 26 26 30 31 37 44 48 46 40 44 48 42 41 46 48 48 45 43 44 45 43 42 41 41 42 41 41 43 42 41 43 44 45 45 45 43 41 44 46 48 50 48 47 50 52 51 51 52 53 53 53 53 52 49 48 49 46 47 54 57 59 59 55 52 49 50 52 56 61 60 63 65 61 58 58 60 63 68 72 73 73 65
29 31 31 31 32 32 32 32 28 27 28 30 32 29 27 26 26 27 31 41 45 44 46 41 40 42 39 39 43 48 49 48 44 43 43 42 43 42 40 42 41 40 42 43 41 41 43 43 45 46 44 41 42 46 47 49 50 49 51 53 51 50 51 53 55 54 51 51 50 49 48 47 48 52 56 58 57 53 48 48 51 53 54 56 58 63 62 56 53 56 62 68 74 77 81 83 69
23 23 24 28 28 28 31 32 28 27 28 30 29 27 26 26 27 28 30 37 41 41 46 45 41 42 39 36 41 47 47 47 43 40 40 38 39 40 37 39 41 39 42 44 42 41 42 44 46 47 46 44 42 44 46 47 49 50 51 51 51 50 50 52 55 53 51 52 51 52 52 51 49 49 53 55 54 51 47 47 50 53 53 52 56 58 54 50 50 55 63 72 79 81 84 85 73
22 21 22 25 26 25 27 30 29 28 28 30 29 27 28 25 23 27 31 38 42 43 45 45 42 42 41 34 37 45 44 44 43 38 37 34 33 36 34 35 38 38 39 44 43 41 41 43 46 46 46 45 43 42 45 46 49 50 50 50 52 51 50 50 50 48 49 52 54 57 56 50 46 47 50 51 50 50 48 46 48 53 54 52 54 56 53 52 54 59 67 75 80 81 82 82 73
22 20 19 19 20 22 24 27 29 28 27 29 30 29 31 27 20 25 30 35 40 44 46 44 38 36 41 38 34 41 42 42 42 38 37 32 30 33 33 33 34 34 37 42 43 41 41 41 41 42 42 42 41 41 42 45 47 49 49 51 52 50 49 48 45 42 44 49 55 61 57 49 46 45 47 47 46 48 46 46 51 55 54 53 56 59 58 59 62 64 65 71 76 77 79 79 69
21 18 17 16 16 18 21 24 27 28 27 28 30 31 33 28 21 25 28 30 36 44 50 51 44 37 40 40 38 40 39 37 38 38 39 34 30 31 31 33 33 32 35 38 40 39 38 37 36 37 36 36 38 37 38 41 44 46 47 48 48 48 48 49 45 38 39 45 52 57 56 53 50 47 49 48 46 46 43 45 53 55 56 57 59 62 62 63 64 62 60 66 70 72 75 71 58
21 18 16 16 15 16 18 23 26 26 26 27 29 31 34 30 25 26 28 30 35 42 50 55 55 51 45 39 38 41 37 34 35 35 38 35 33 33 31 33 32 31 31 32 35 36 34 32 31 32 32 33 33 34 36 38 41 44 45 45 44 45 45 47 46 39 36 42 48 53 56 57 55 51 52 52 48 46 44 47 52 55 57 59 62 64 63 62 62 62 62 63 67 72 72 60 49
19 17 16 15 16 16 17 21 24 24 25 26 28 30 33 32 28 27 29 32 35 38 46 53 58 62 57 42 36 40 37 34 36 36 35 34 35 35 32 31 29 29 28 27 31 31 30 28 27 30 31 31 29 31 35 35 38 43 44 45 45 47 46 46 46 41 38 42 49 55 59 59 58 56 55 54 52 50 49 51 52 53 55 59 64 66 66 64 62 64 65 63 67 71 66 56 47
17 16 16 16 16 16 15 19 22 21 23 27 28 29 31 33 31 29 30 32 33 34 42 49 55 62 64 51 39 40 38 34 38 37 32 31 34 34 31 30 27 28 30 28 28 26 25 24 24 27 30 30 28 28 32 32 34 37 41 45 47 50 50 48 47 44 42 45 52 59 62 61 59 60 59 55 52 49 47 48 48 49 52 55 59 62 66 67 63 64 63 61 67 67 58 50 39
17 16 16 16 16 15 15 18 20 19 22 27 28 28 29 32 33 32 31 32 32 33 38 44 50 56 60 53 42 39 37 32 31 31 26 26 31 31 29 30 27 27 31 30 28 26 24 23 23 25 28 30 29 28 31 32 32 34 35 39 45 50 51 50 47 45 45 45 48 56 63 64 62 62 61 57 53 49 45 46 46 47 51 52 51 52 57 60 63 67 65 66 67 55 38 30 20
17 16 15 15 15 15 15 17 18 19 22 25 27 28 29 31 34 33 31 32 32 32 36 40 45 50 52 51 44 36 32 27 24 25 24 23 27 29 29 30 28 25 25 27 28 27 24 22 23 24 26 31 32 30 31 32 32 33 31 32 39 46 47 45 43 43 44 42 43 49 57 63 65 63 61 59 57 54 49 46 45 43 46 49 48 50 55 57 59 64 72 75 58 29 14 11 6
16 16 15 14 15 15 15 15 17 19 22 24 26 26 27 30 34 34 32 32 32 32 35 38 42 45 47 49 47 38 28 22 21 23 24 24 25 27 29 30 28 23 21 21 23 25 23 22 24 23 22 30 33 28 26 29 30 31 30 29 32 39 43 41 39 40 41 40 40 44 50 57 61 60 59 57 56 55 51 46 42 40 43 44 44 47 50 51 51 57 68 62 34 9 5 6 3
16 16 15 14 14 15 15 14 15 18 20 22 24 25 26 28 31 34 32 32 33 31 33 38 40 42 45 45 47 44 31 20 19 20 22 23 24 25 27 27 25 22 19 18 20 22 22 22 24 23 18 23 29 25 21 23 27 31 33 32 32 36 42 41 36 36 38 37 36 41 46 51 55 57 57 57 56 55 50 45 40 40 44 42 40 41 37 35 36 41 41 27 11 4 5 4 4
17 16 15 14 15 14 14 14 15 16 18 20 22 24 26 27 29 32 32 32 34 31 31 36 39 40 42 43 45 44 37 27 22 20 19 19 20 21 22 22 21 19 17 17 19 21 23 22 22 22 18 17 22 25 22 22 26 34 38 38 38 38 40 40 36 34 35 34 33 38 45 49 52 54 55 55 55 53 48 41 32 32 41 40 34 31 24 18 17 17 13 6 4 4 4 4 5
16 16 16 16 15 15 14 14 15 16 17 19 21 24 27 28 29 31 32 32 34 32 31 33 36 38 40 41 43 43 43 39 28 20 18 16 15 16 17 18 19 18 16 17 18 20 21 20 17 17 18 15 16 21 24 22 25 34 39 41 41 39 39 40 37 35 37 39 39 41 44 47 49 52 53 50 49 54 51 38 25 24 33 31 21 14 9 7 6 5 4 4 5 4 5 5 5
15 15 16 16 16 15 14 14 15 17 18 19 22 24 27 29 30 31 31 32 33 33 32 31 33 37 39 40 41 42 43 43 34 22 19 19 17 14 14 15 15 16 16 15 15 15 16 16 14 14 15 15 14 17 21 25 28 32 37 42 42 39 40 41 39 40 45 49 50 51 48 48 50 49 49 48 49 52 42 28 22 21 20 14 8 5 4 4 4 4 4 5 5 5 7 6 7
15 16 16 16 15 15 15 14 14 17 19 19 22 25 27 29 31 31 31 32 33 33 32 31 32 35 38 39 40 41 42 44 41 30 21 20 20 18 16 15 14 14 15 15 14 13 13 14 14 14 14 15 15 15 18 26 30 28 30 36 35 34 36 39 41 45 52 55 56 59 55 49 48 45 46 50 46 34 20 15 17 13 8 6 5 5 6 5 5 6 7 8 8 8 8 8 9
14 16 16 15 14 14 14 14 14 17 21 20 22 28 30 28 30 32 32 33 34 34 34 32 32 34 36 38 39 41 43 44 46 41 30 23 21 20 19 17 15 14 14 14 13 13 14 14 14 15 15 15 16 15 16 23 28 26 24 25 25 30 34 36 42 51 56 57 58 61 57 50 49 52 54 50 34 16 9 10 9 6 6 7 8 8 8 8 10 12 12 12 12 10 10 8 8
12 15 16 16 15 14 14 14 14 17 20 20 21 27 31 29 29 31 32 34 35 36 37 36 35 35 35 38 39 40 43 44 46 48 42 32 26 22 20 19 18 17 15 14 14 13 15 16 17 16 15 15 17 17 15 18 23 24 21 20 21 30 38 40 44 52 56 57 56 56 53 50 50 51 47 34 18 10 8 8 7 8 11 11 11 11 12 14 16 17 19 20 20 17 15 12 9
11 12 14 15 15 14 15 14 14 15 17 20 21 21 26 29 29 30 31 33 35 35 37 38 38 38 37 38 40 41 42 44 45 48 48 40 33 26 19 16 16 16 17 17 16 15 15 17 19 19 17 16 17 18 17 16 20 22 21 20 18 23 34 41 43 47 52 52 49 48 49 51 48 41 32 18 10 10 8 9 12 13 14 14 15 15 16 20 22 24 25 27 28 26 23 19 14
10 11 12 13 14 15 15 14 14 14 15 20 22 21 26 29 27 29 31 31 34 35 35 37 38 39 40 39 40 42 43 44 46 48 49 44 38 32 26 21 19 18 17 16 17 17 16 16 17 19 18 17 17 19 18 16 18 21 20 20 17 18 28 36 37 38 43 44 44 45 48 49 41 28 21 13 8 10 10 12 15 15 17 18 17 18 21 26 29 30 32 32 33 32 30 27 22
8 10 10 11 13 14 14 14 13 13 15 19 21 23 27 30 26 27 30 30 32 34 34 37 38 39 41 41 42 44 45 45 46 48 49 47 43 39 38 35 29 24 20 18 17 15 15 15 15 16 17 17 17 18 19 17 16 18 18 18 16 16 22 27 27 29 34 38 41 41 39 41 33 18 13 12 10 12 14 15 17 18 19 20 21 24 27 31 32 31 32 34 36 36 36 34 30
7 8 9 10 12 13 13 14 12 14 19 18 18 22 26 30 28 26 28 29 30 32 34 37 39 40 42 44 44 45 46 46 46 46 49 50 47 43 43 41 34 27 24 22 18 14 11 9 10 12 14 16 17 18 18 17 15 15 15 16 14 14 17 20 22 29 34 38 39 31 23 26 24 13 10 12 11 13 15 16 19 20 20 23 26 28 30 31 31 33 36 40 44 46 46 45 41
7 8 9 9 10 11 12 13 14 18 20 17 16 19 22 28 29 26 26 28 29 31 33 35 37 37 40 44 44 45 47 47 47 46 45 49 49 44 39 35 32 30 25 20 17 14 9 6 5 7 10 14 16 17 17 16 15 12 12 14 12 12 13 13 20 31 36 38 35 23 14 15 14 10 10 12 12 14 16 18 20 21 23 26 29 30 31 35 38 42 46 48 51 51 51 52 51
7 7 7 9 12 14 17 17 18 21 19 14 14 16 17 22 25 24 24 26 28 30 32 33 34 34 37 41 43 44 47 47 48 47 44 44 43 36 32 30 29 28 24 18 13 11 8 6 5 4 6 10 13 14 14 13 13 10 9 11 10 10 10 9 17 27 31 31 26 15 10 11 10 11 11 11 13 15 17 20 22 25 28 30 32 33 34 40 44 46 46 45 45 45 47 49 51
7 6 6 10 14 19 24 22 20 21 19 15 13 14 16 17 19 21 22 22 23 26 29 31 31 33 35 36 37 42 47 48 48 45 41 39 37 31 28 28 27 26 25 22 16 12 10 8 7 6 5 7 10 11 12 11 10 8 8 9 9 9 8 7 14 21 22 21 18 12 11 11 11 12 13 14 16 18 20 23 25 28 31 32 33 35 37 41 42 41 40 39 39 40 44 47 51
8 6 6 8 11 16 21 21 20 19 18 15 14 15 16 15 16 17 17 18 19 23 28 29 30 31 32 32 34 40 43 44 46 44 38 36 35 32 29 27 26 26 26 26 22 17 15 14 14 12 7 6 7 8 9 8 7 7 7 8 8 7 7 8 13 17 17 15 14 13 12 13 14 16 18 20 22 23 23 25 26 28 30 33 34 35 36 39 39 38 39 40 42 42 42 44 49
7 7 7 7 8 11 15 16 15 14 16 17 15 15 15 14 15 15 15 16 18 22 26 28 29 30 31 31 33 36 37 39 43 42 38 36 32 29 28 27 26 26 25 26 25 22 19 19 18 17 12 8 6 6 6 6 5 6 6 7 7 6 7 10 14 15 15 14 15 16 16 18 21 25 27 29 29 29 27 27 28 29 30 32 34 35 36 38 37 37 39 42 44 44 43 43 45
7 6 6 6 7 9 11 14 12 12 19 20 14 14 14 14 15 14 14 16 17 20 23 25 28 29 29 29 31 33 36 40 41 38 36 34 28 25 26 26 26 25 24 23 23 22 22 21 20 20 16 11 8 6 5 6 6 5 6 7 6 6 8 13 16 16 15 17 20 23 25 27 31 33 34 34 33 32 30 29 30 30 32 33 34 36 37 37 38 37 38 40 40 42 44 44 44
7 6 7 6 7 8 10 14 15 18 22 19 14 14 14 14 16 14 14 17 19 20 22 24 25 27 27 28 29 32 35 39 38 34 31 28 26 25 25 25 24 23 23 23 23 23 24 23 22 21 19 15 10 7 6 5 5 4 5 7 6 7 11 15 18 16 16 20 24 28 31 33 36 37 37 36 35 35 34 33 32 32 34 35 36 38 38 38 39 38 37 38 39 41 42 44 45
7 7 7 7 8 8 9 13 17 21 22 18 14 14 14 14 15 15 15 18 21 21 22 23 23 24 26 27 28 30 32 33 32 30 29 27 26 25 22 22 23 22 22 23 24 24 24 25 24 21 20 17 12 9 6 4 5 4 5 7 6 8 13 18 19 17 16 19 24 27 30 33 36 38 38 38 37 36 36 35 35 35 36 37 38 39 39 39 39 39 38 39 40 41 42 43 43
8 8 8 7 8 9 9 11 14 18 21 21 18 17 15 13 14 15 16 18 19 19 20 22 22 23 25 26 27 28 29 30 29 28 27 26 24 21 20 20 21 21 21 22 24 24 24 25 26 23 20 18 15 10 6 4 4 4 6 7 6 8 14 19 20 18 16 17 22 25 28 31 34 37 38 38 37 36 35 35 35 35 36 36 37 38 39 39 40 40 41 41 42 42 43 43 43
8 8 8 8 8 8 9 9 9 12 19 23 23 22 16 12 13 15 15 16 17 17 17 19 21 23 23 24 25 25 25 26 26 25 25 24 21 19 19 20 20 20 20 21 22 22 23 24 26 25 21 19 17 11 6 4 4 4 6 7 7 9 15 19 21 20 18 17 19 22 25 28 31 33 34 34 34 33 33 32 33 33 34 34 35 36 37 38 39 41 42 43 44 44 44 43 42
9 9 8 8 9 8 9 12 10 9 13 17 20 22 16 12 13 13 13 15 16 16 17 19 21 22 23 23 23 22 22 22 23 23 23 23 20 18 18 18 19 19 18 19 20 21 22 23 26 28 24 20 20 15 8 5 4 5 7 7 7 10 15 19 21 21 20 19 19 21 24 26 27 28 29 29 29 30 31 32 34 36 37 38 39 38 38 39 40 41 43 43 44 45 46 44 42
Wind_Speed
6 6 6 5 3 2 5 5 5 5 5 5 4 4 5 6 9 10 12 13 13 13 9 9 10 10 12 13 15 16 15 13 15 18 22 26 27 26 26 26 26 25 23 23 24 25 26 26 27 26 26 25 24 24 24 24 25 26 27 28 29 27 25 23 22 21 20 18 16 15 13 12 12 13 13 13 13 12 10 9 7 7 9 10 10 11 12 12 11 11 10 9 9 8 8 8 8
5 5 5 4 2 4 7 8 6 6 5 6 7 6 6 6 9 13 16 16 18 15 9 11 12 11 10 11 12 13 16 12 11 18 26 29 30 29 28 27 25 24 23 23 24 24 25 26 26 25 25 24 23 23 23 24 25 26 27 28 27 25 23 22 21 19 18 17 15 13 12 11 11 12 13 13 12 10 9 7 7 8 9 10 11 12 12 12 11 11 10 9 9 9 8 8 8
4 5 4 3 4 7 9 8 6 6 5 4 7 5 6 11 13 15 16 16 17 12 7 9 10 9 8 13 13 12 15 13 13 22 29 29 31 32 29 28 26 24 23 23 24 24 25 25 26 25 24 23 23 22 22 24 25 26 27 26 25 23 22 21 19 18 17 15 13 12 10 10 10 12 13 12 11 9 7 6 7 9 10 11 12 13 13 13 12 11 10 9 10 10 9 8 8
5 5 4 3 5 9 9 8 6 6 5 4 8 6 11 16 15 16 15 11 10 5 4 5 7 8 4 12 14 13 18 20 20 23 29 30 29 31 29 28 26 25 24 24 25 25 25 26 26 25 24 23 23 22 22 24 25 26 26 25 24 22 21 19 17 16 14 13 12 10 9 9 10 12 12 11 9 7 6 7 8 9 10 11 12 13 13 13 13 12 10 10 10 10 9 9 9
4 4 4 4 7 9 10 7 4 5 2 6 9 10 15 15 11 13 14 8 5 3 5 2 6 12 10 15 17 19 25 25 24 23 28 31 28 29 28 27 26 26 25 25 25 26 26 25 25 25 24 23 23 22 23 24 25 26 25 24 22 21 20 18 15 14 12 12 11 9 9 8 10 11 11 9 7 6 7 8 9 9 11 11 12 12 12 13 13 13 12 11 11 10 9 9 9
1 3 5 6 9 11 12 10 7 8 1 9 13 13 14 13 11 14 13 6 3 5 6 2 6 16 20 22 22 23 24 24 26 24 25 29 27 26 26 26 26 26 26 25 25 26 26 25 25 25 24 24 23 22 23 24 25 25 24 23 21 20 18 16 14 12 11 11 10 9 9 8 10 10 9 8 6 6 8 9 9 10 11 11 11 11 11 12 13 13 13 13 12 12 10 9 9
2 4 8 9 11 11 14 14 13 8 6 9 13 15 12 12 14 13 8 6 7 5 2 2 7 18 25 24 24 23 20 21 23 24 23 26 26 24 24 25 25 25 25 25 25 25 25 25 25 24 24 24 23 23 23 23 24 24 23 21 20 18 16 15 13 11 10 10 9 9 9 9 9 9 8 7 6 8 9 9 9 10 11 10 10 10 10 11 11 12 13 13 12 12 12 10 10
5 7 10 11 12 12 17 15 15 6 11 8 11 14 10 12 13 11 8 12 12 6 4 6 9 17 24 21 23 22 19 20 21 22 22 23 24 23 23 23 24 25 24 24 25 25 25 25 24 24 24 24 23 23 23 23 23 22 21 20 18 17 15 14 12 11 10 9 9 10 9 8 8 8 7 6 7 9 9 9 10 10 10 10 10 10 10 10 11 12 12 12 12 13 12 11 10
6 9 11 13 14 17 19 13 15 5 13 7 9 11 9 10 10 11 13 14 11 5 5 6 8 13 20 19 22 21 20 22 20 21 20 21 22 21 22 21 22 23 24 24 24 24 24 24 24 24 24 24 23 22 22 22 22 21 19 18 17 16 14 13 12 10 9 9 10 10 9 8 7 7 6 6 8 9 8 9 10 11 10 10 10 10 10 10 11 12 12 12 12 12 12 11 10
6 9 13 14 15 18 18 13 10 3 12 7 7 7 8 9 7 11 12 11 9 6 7 7 7 12 19 20 22 22 22 22 20 21 20 20 20 20 21 20 20 20 22 23 23 23 23 24 23 23 23 23 22 21 21 21 20 19 18 16 15 14 13 12 11 10 10 9 10 9 8 7 7 6 6 7 8 8 8 9 11 11 11 10 10 10 10 10 11 12 13 13 12 12 12 11 11
6 7 12 13 14 16 16 14 2 12 11 8 9 6 7 7 7 10 11 11 8 3 6 8 9 15 21 21 23 23 21 21 20 21 20 19 19 20 20 20 19 19 19 21 22 22 23 24 23 22 22 21 21 21 20 20 19 18 17 15 14 14 13 12 11 11 10 10 9 8 7 6 7 6 7 8 7 7 8 9 11 12 11 11 10 9 10 11 12 13 14 14 13 13 13 12 12
5 7 11 11 14 14 14 15 0 13 9 10 10 7 6 7 7 6 9 10 6 4 5 7 11 17 21 23 24 23 21 21 20 20 20 19 19 19 19 20 19 18 18 19 21 21 22 22 22 21 20 20 20 19 19 19 18 17 16 15 14 13 13 12 12 11 10 9 9 7 6 6 6 7 8 8 7 7 7 8 10 11 11 11 10 9 10 12 13 14 14 14 14 13 13 13 12
4 6 8 10 14 13 14 16 4 12 12 14 11 9 9 8 9 7 7 7 5 6 7 8 15 17 19 24 24 23 22 21 20 20 20 19 19 19 19 19 19 19 18 18 19 20 20 20 20 20 20 19 19 19 18 18 17 16 16 15 14 13 13 13 12 11 10 8 8 7 5 5 6 7 8 7 7 6 7 8 9 10 11 11 10 9 10 11 12 13 13 13 12 12 12 11 11
3 3 6 7 8 11 13 9 9 17 14 11 9 10 10 8 10 10 8 9 8 5 8 11 14 17 19 24 25 24 23 22 21 19 20 19 19 18 18 19 19 18 18 18 18 19 19 19 19 19 19 19 19 18 18 17 17 16 15 15 14 13 13 12 11 10 9 8 7 6 5 5 6 6 7 6 6 6 6 6 7 8 9 10 9 9 9 10 10 11 11 11 11 11 11 11 10
1 2 6 4 7 10 8 5 9 15 11 8 8 10 9 7 10 11 9 10 11 6 9 11 10 13 17 20 23 25 23 22 21 19 20 20 19 19 18 19 19 18 18 19 19 18 19 18 18 18 18 18 18 17 17 17 16 16 15 14 14 13 13 12 11 9 8 7 6 5 5 4 5 5 5 5 5 6 6 5 6 7 8 8 8 8 8 8 8 9 10 10 11 11 11 10 10
3 4 7 6 9 8 5 3 9 15 12 9 9 10 8 9 13 12 8 8 11 9 8 10 8 10 14 16 21 25 24 23 22 21 21 21 20 19 19 20 19 19 19 19 19 19 19 18 18 18 18 17 17 17 16 16 16 16 15 14 14 13 12 11 10 9 7 6 5 5 4 4 3 3 3 3 5 6 6 5 5 6 7 7 7 7 7 7 7 8 9 10 11 10 10 10 9
4 6 7 7 7 2 4 6 8 11 10 8 8 12 12 15 14 10 9 6 9 12 8 7 7 9 14 17 20 24 24 23 23 22 22 21 21 20 21 21 20 20 19 19 18 18 18 18 18 18 18 17 17 17 16 16 15 15 14 14 13 12 11 10 9 8 6 5 4 3 3 2 2 2 3 3 5 6 6 6 5 5 5 5 6 6 6 7 7 8 9 10 11 10 10 10 10
5 7 6 3 1 4 5 9 4 7 9 8 11 14 12 13 10 8 12 9 10 12 7 6 7 11 16 18 20 23 23 23 22 22 22 21 20 20 20 20 20 20 19 19 19 18 18 18 18 17 17 17 17 17 16 16 15 14 14 13 13 12 11 10 8 7 6 4 3 2 2 2 2 2 3 4 5 6 6 6 6 5 5 5 6 6 6 6 7 7 9 10 10 10 11 12 12
6 4 6 3 3 1 4 6 1 5 8 11 12 9 9 10 7 9 16 15 13 13 13 11 12 16 18 20 22 22 22 21 20 21 21 20 19 18 18 19 19 18 18 18 19 18 18 18 18 17 17 16 16 16 16 15 15 14 13 13 12 11 10 9 8 7 5 4 3 2 1 2 2 3 3 3 4 5 6 6 6 5 5 5 5 6 5 6 6 7 8 8 9 10 11 11 12
6 3 4 3 2 7 6 3 3 1 6 11 9 8 12 11 8 14 18 14 13 16 19 17 14 16 19 21 22 22 22 20 20 20 19 19 18 17 16 16 17 17 17 17 17 18 18 18 17 17 16 16 16 15 15 15 14 14 13 12 11 11 10 8 8 6 5 4 3 2 2 2 2 2 3 3 4 5 5 6 6 5 5 5 4 5 5 6 6 6 6 7 9 10 10 12 13
6 2 2 3 1 3 3 1 4 2 6 9 8 13 14 8 9 18 19 13 15 18 16 14 10 13 19 22 23 23 22 20 20 20 18 19 17 16 16 16 16 16 17 16 16 17 17 17 17 16 16 16 15 14 15 14 14 13 12 12 11 10 9 8 7 6 5 4 3 2 2 2 1 1 2 3 3 4 4 4 4 4 4 4 4 4 5 5 4 5 6 7 9 10 12 14 14
10 6 3 4 2 2 2 3 7 6 7 8 8 14 11 7 11 17 17 10 16 21 13 11 9 11 17 20 24 24 22 21 20 20 19 18 17 17 17 17 17 16 16 15 15 15 15 16 15 15 15 15 15 14 14 14 13 13 12 11 10 10 8 8 7 5 5 4 3 2 1 1 1 1 2 3 3 3 2 2 3 3 4 4 4 5 5 4 4 5 6 7 8 9 11 13 14
14 13 8 1 2 1 2 3 8 9 9 8 8 11 10 8 9 14 14 13 21 23 11 10 10 11 15 18 23 24 23 21 20 21 19 19 18 17 17 16 15 14 15 15 14 14 14 14 14 14 14 14 14 13 13 12 12 12 11 10 9 8 7 6 6 4 4 3 3 2 1 0 1 2 3 4 4 2 1 2 2 3 3 3 4 5 4 4 5 5 5 7 8 10 12 13 14
19 17 14 9 3 3 3 4 7 10 8 8 9 11 10 7 10 12 8 12 26 23 11 10 9 12 17 18 22 23 22 21 19 20 19 18 17 16 16 14 14 14 14 15 14 14 14 13 13 13 13 13 13 12 11 11 11 10 10 9 8 7 6 5 4 4 3 3 3 2 2 1 1 2 4 4 4 3 2 2 2 3 3 4 4 4 4 4 4 5 6 8 10 11 13 13 13
25 21 17 15 10 5 4 3 7 9 7 9 12 10 9 10 11 9 6 15 24 19 14 12 9 13 18 18 21 22 22 21 20 20 19 19 17 16 16 15 15 14 14 14 14 14 13 13 12 12 12 12 12 11 11 10 9 9 9 8 7 7 6 5 4 4 3 3 3 3 3 2 2 2 3 3 4 3 3 3 3 4 4 4 5 4 4 4 5 6 8 10 10 11 11 13 12
25 25 23 19 14 9 4 5 8 10 9 10 10 8 9 13 12 8 10 18 19 16 16 14 10 13 18 18 21 22 22 22 21 21 20 19 19 18 17 17 16 15 14 13 13 13 13 13 12 12 11 11 11 10 10 9 8 8 8 8 7 7 6 5 5 4 4 3 3 3 3 3 3 3 3 3 3 3 3 4 4 4 4 4 4 4 5 5 6 7 9 10 10 10 10 11 13
22 23 27 27 21 11 4 7 10 10 12 12 10 10 12 11 12 11 10 13 19 18 16 14 11 12 18 18 20 22 22 22 22 21 21 20 20 18 17 17 16 15 15 14 14 13 13 13 12 11 11 10 10 10 9 9 8 8 8 7 6 6 6 5 5 5 4 3 3 3 3 3 3 3 4 3 3 3 4 4 4 5 4 4 4 5 6 6 7 8 9 10 11 11 10 11 14
22 21 25 30 24 14 8 11 13 10 15 16 10 12 14 10 11 15 14 14 18 17 15 15 12 11 19 19 19 22 23 22 21 21 21 20 19 18 17 16 16 15 15 14 13 13 13 12 12 11 10 10 10 9 9 8 8 7 7 7 6 6 5 5 5 5 4 3 3 3 4 4 3 3 4 4 3 3 4 4 5 5 5 4 4 5 7 8 8 9 9 10 11 12 11 12 14
22 20 21 24 20 17 15 14 14 13 16 17 13 12 14 11 12 18 22 19 16 14 15 15 11 10 18 21 20 21 22 23 22 21 20 19 18 17 16 15 15 14 14 14 14 13 13 12 12 11 11 10 10 9 9 8 8 8 7 6 6 6 5 5 5 5 4 3 3 4 5 5 4 3 3 4 4 4 4 5 5 6 6 5 5 6 7 9 9 10 10 11 11 12 13 13 14
20 18 19 22 19 18 18 16 15 16 18 20 18 15 16 13 10 21 28 23 20 18 17 16 12 11 15 20 21 21 21 22 22 21 20 18 17 16 15 14 14 14 14 15 14 13 13 13 12 12 11 11 10 10 9 9 8 8 8 7 7 7 6 6 6 7 6 4 3 5 6 6 5 4 4 4 4 5 5 5 5 6 7 7 7 7 8 10 10 11 12 12 12 12 13 14 15
22 20 17 21 21 20 18 19 19 20 22 23 22 18 19 14 10 23 28 22 22 21 19 18 16 15 15 16 20 23 21 20 21 20 20 19 18 17 15 15 15 14 15 14 14 14 13 12 12 12 11 11 11 10 10 10 9 9 9 9 8 8 8 8 7 8 7 5 5 6 6 6 6 5 5 5 5 5 5 5 6 7 8 8 7 8 9 10 12 13 13 13 13 13 14 15 15
23 21 15 15 17 18 19 22 22 19 21 25 23 18 18 16 13 23 25 22 23 21 19 19 18 19 18 15 17 22 21 19 20 19 19 19 19 18 16 16 16 15 15 14 14 14 14 12 11 12 11 11 11 10 11 11 11 10 9 9 9 9 9 9 9 9 8 6 6 6 6 7 6 5 5 6 5 5 6 6 7 8 9 9 9 10 10 11 13 14 14 14 13 14 15 15 14
20 19 17 15 17 20 19 20 22 17 20 27 23 18 18 18 17 22 24 22 23 21 20 20 20 21 22 19 16 20 22 20 21 21 19 19 19 18 17 17 17 16 15 14 14 14 14 13 12 12 12 12 12 11 12 12 12 12 11 10 9 9 8 8 9 10 9 7 7 6 6 7 7 5 5 6 6 7 7 7 8 9 10 10 10 11 12 13 13 14 14 14 14 15 15 15 14
19 16 20 21 23 23 18 17 19 19 24 27 23 18 15 14 17 23 25 22 22 23 22 20 21 22 22 21 18 18 21 21 21 21 19 18 19 18 18 18 17 17 17 16 15 15 15 14 13 13 13 13 13 12 12 12 12 13 13 12 11 10 9 8 8 9 10 9 8 7 6 7 7 6 6 6 7 8 9 9 10 11 12 12 12 12 13 14 14 14 14 14 15 15 15 15 15
21 19 22 25 26 25 20 19 20 23 27 25 24 20 12 10 15 23 27 23 22 24 24 21 22 23 22 21 19 18 19 20 19 19 19 18 19 19 18 19 19 17 17 18 17 17 16 16 15 14 13 14 14 13 12 13 13 14 15 14 13 12 11 9 9 9 10 11 9 7 7 8 8 8 8 9 9 10 10 10 11 12 13 13 13 13 13 13 13 14 14 14 15 16 16 15 14
21 21 23 24 21 20 19 18 20 24 26 25 25 20 15 14 15 22 28 25 21 22 24 23 23 24 23 22 21 19 17 19 19 19 20 19 19 21 20 20 20 20 18 18 19 18 18 17 17 16 14 15 15 13 12 13 13 14 14 14 13 13 12 11 10 10 11 11 9 8 7 8 9 10 10 10 11 11 12 12 11 12 13 14 13 13 13 13 13 14 14 15 16 16 15 14 13
23 23 24 23 21 18 19 20 21 27 26 26 24 18 16 19 17 20 29 27 20 22 24 25 25 25 25 24 23 21 17 17 18 19 22 21 21 21 23 23 23 22 21 19 19 19 19 18 18 17 14 14 16 14 11 11 12 12 12 12 12 12 13 12 11 11 11 11 10 8 8 8 9 10 11 11 12 12 12 12 12 12 13 14 14 13 13 12 13 13 14 15 15 14 13 12 11
28 28 28 28 27 24 21 19 23 30 26 24 24 19 18 21 17 19 30 29 21 22 25 26 27 26 25 25 24 22 17 16 19 20 21 22 23 23 24 25 24 23 21 19 18 19 21 20 18 18 15 12 14 15 14 12 11 11 11 11 12 13 13 13 13 12 11 11 10 8 8 9 10 11 11 12 12 12 12 12 13 13 13 12 12 11 11 11 12 12 13 13 12 12 11 10 9
30 31 31 31 31 28 24 19 23 31 26 24 25 23 21 22 18 18 28 30 23 23 25 26 28 28 27 26 25 23 20 18 20 22 22 22 23 23 23 25 24 23 22 20 19 20 22 21 19 18 17 13 11 15 16 14 13 13 12 12 13 14 14 14 14 13 11 10 9 8 9 10 11 11 11 11 11 11 11 12 12 11 11 10 10 10 9 10 10 10 10 9 9 9 9 8 8
33 33 32 33 31 28 27 20 20 30 29 24 24 24 23 23 21 21 25 25 24 24 24 25 28 29 28 27 26 25 23 21 20 21 23 24 23 24 24 24 24 23 23 22 20 19 20 20 19 17 18 15 11 12 15 16 15 15 15 14 15 15 15 16 16 13 12 12 11 10 10 10 11 11 12 11 11 11 10 10 8 8 8 8 8 8 8 8 8 8 8 8 8 8 8 8 7
36 36 34 33 31 29 29 23 16 26 29 23 24 25 25 28 26 25 25 23 24 25 23 25 28 28 28 28 27 26 25 24 21 20 22 25 26 26 26 25 24 24 23 23 21 19 18 19 19 18 17 17 14 12 13 16 17 17 17 17 17 16 16 17 15 12 12 12 12 10 10 11 11 11 11 11 12 11 9 7 5 5 6 6 6 6 6 6 7 8 9 10 10 10 10 9 8
36 37 37 35 31 29 27 24 20 19 25 22 25 20 19 30 31 26 26 26 25 25 24 26 28 28 27 28 29 27 26 25 24 21 19 22 25 27 28 27 26 25 24 23 22 20 20 20 20 20 18 18 17 14 13 15 18 18 17 17 16 15 14 14 13 12 12 12 12 11 11 11 11 11 11 10 10 8 6 5 4 3 4 4 4 4 5 6 7 9 10 11 12 12 12 12 11
35 35 37 36 33 32 28 26 24 18 23 24 27 18 12 24 30 25 26 30 32 28 26 28 28 28 28 28 29 28 27 26 26 24 21 20 22 24 26 27 26 25 24 24 23 23 22 22 22 22 20 19 18 17 15 15 17 18 17 16 15 16 15 13 13 15 14 13 13 13 12 11 11 10 10 9 7 6 5 4 3 2 2 2 3 4 5 6 7 9 10 11 13 13 14 14 13
36 33 32 32 35 35 32 32 30 20 22 27 32 28 16 20 27 25 26 32 35 34 30 30 31 30 30 30 29 29 28 28 27 27 25 22 20 21 21 22 22 22 23 24 24 24 24 23 23 23 22 21 20 19 19 17 16 18 18 16 15 16 17 15 15 16 16 16 15 14 13 12 11 10 9 8 7 6 5 3 2 1 1 2 3 3 5 6 7 9 10 12 13 15 15 15 15
37 32 28 29 33 34 33 35 33 26 20 20 29 31 17 15 25 24 25 31 34 34 31 32 34 33 32 32 31 30 28 29 29 28 27 24 21 20 18 18 17 18 21 23 24 24 23 23 24 25 25 23 21 21 21 19 17 18 18 17 16 16 17 17 17 17 17 18 17 16 14 12 12 10 9 8 7 6 5 3 2 1 0 1 3 4 5 6 7 9 10 12 14 15 16 16 16
35 32 29 28 29 33 33 32 34 31 22 17 26 33 18 13 27 28 25 30 32 33 32 32 35 33 32 33 31 31 29 29 30 30 29 26 23 21 20 18 17 16 17 20 23 24 24 24 24 26 27 25 23 22 22 21 19 19 19 18 17 16 17 17 17 17 18 18 17 16 13 12 12 10 9 9 7 6 5 3 2 1 0 1 2 3 5 6 8 9 10 12 13 14 15 16 16
31 30 31 31 29 33 33 32 35 27 15 16 25 37 27 12 23 32 29 31 31 32 33 34 37 35 32 32 32 32 31 29 30 30 30 29 25 22 21 20 17 16 16 18 21 24 24 24 24 25 26 26 25 24 24 23 21 20 20 18 17 16 16 17 17 17 18 17 16 15 13 12 13 11 9 9 8 6 5 3 2 2 1 1 2 3 5 6 8 10 11 12 13 13 14 15 16
32 30 31 31 28 29 30 29 30 17 9 18 22 29 29 16 20 31 30 30 30 30 33 35 37 37 36 35 34 34 34 32 30 30 30 30 29 26 23 20 18 17 17 18 18 21 23 22 22 23 25 27 27 26 25 24 23 22 20 19 17 16 16 17 17 17 17 16 14 13 12 13 14 11 9 9 7 6 5 3 2 2 2 3 4 5 7 8 9 10 11 12 13 14 15 15 16
34 34 33 25 15 16 17 15 15 9 13 27 26 22 24 21 26 32 29 29 29 29 32 34 36 37 36 37 35 34 36 35 32 32 30 29 29 26 23 20 18 17 16 16 17 18 20 20 19 20 23 25 26 26 26 24 24 22 20 19 17 16 17 17 17 17 17 16 14 12 12 12 13 10 9 9 7 5 4 3 3 3 4 4 5 7 9 10 10 11 12 14 15 16 17 18 18
34 37 37 25 9 6 7 6 6 8 15 29 33 26 22 23 28 31 29 28 27 27 30 33 35 35 34 37 36 35 37 38 36 33 31 30 28 26 23 21 19 17 15 15 16 16 17 17 17 17 19 23 25 25 25 24 23 22 20 19 17 17 18 17 17 17 16 16 14 13 12 12 12 10 9 8 6 5 4 4 4 5 6 6 7 9 11 11 11 12 15 16 17 17 17 19 19
36 38 36 31 23 13 7 6 4 6 12 22 29 23 16 20 25 26 28 28 26 26 29 29 30 33 33 33 35 37 38 38 38 35 32 30 28 28 27 23 20 18 15 15 16 16 16 15 13 13 15 19 22 23 24 23 23 22 21 19 18 18 18 18 17 17 15 15 15 13 13 12 12 11 8 7 6 5 5 5 5 6 7 8 9 11 12 12 13 15 17 19 19 19 18 19 19
32 37 36 38 40 29 13 9 12 13 10 15 23 21 18 22 23 23 26 28 27 26 28 27 26 31 35 33 35 36 35 36 36 35 32 29 27 29 29 26 23 21 18 16 17 17 17 14 12 12 12 15 19 21 22 22 22 22 21 20 19 19 19 18 17 17 15 15 15 14 13 13 12 9 7 6 6 5 6 6 7 7 9 10 11 12 13 14 16 17 19 21 21 21 21 21 21
26 36 43 42 41 36 21 14 19 19 9 9 18 20 21 23 21 23 25 25 28 28 27 29 27 30 34 32 33 33 32 35 35 32 30 28 27 27 27 26 25 23 21 19 18 18 17 15 13 12 12 14 17 19 21 22 22 22 22 21 20 20 20 18 17 17 16 16 16 15 13 13 10 8 7 6 6 6 6 8 9 9 10 12 13 14 15 17 19 21 21 22 23 23 23 23 23
27 32 41 36 30 32 26 14 11 12 6 8 18 20 20 20 18 25 30 26 29 31 27 25 26 31 35 33 32 32 32 35 34 31 28 27 28 25 24 26 26 24 24 22 21 20 18 16 15 14 12 12 14 17 19 21 22 22 22 22 21 21 20 18 17 17 17 17 17 14 12 11 9 7 7 6 6 5 6 8 9 11 11 13 14 15 17 18 21 23 24 25 25 25 25 25 25
33 27 28 28 25 25 26 16 6 8 5 4 14 21 23 25 20 21 30 31 29 29 29 26 25 31 37 37 35 34 34 35 34 31 28 27 27 24 21 25 26 26 26 25 23 22 21 19 18 16 14 12 13 15 17 20 22 23 23 23 22 22 21 19 17 18 18 18 16 13 10 9 9 8 7 7 7 6 6 7 9 11 13 14 15 16 18 20 22 24 26 27 28 28 27 27 27
38 31 27 32 30 27 30 26 14 9 5 3 10 13 17 28 26 17 24 34 30 26 29 29 28 32 38 40 39 35 35 36 34 30 29 27 25 22 21 24 26 26 26 26 25 25 24 22 20 19 18 16 15 17 18 19 22 24 24 24 23 23 22 20 18 18 19 18 15 12 10 9 9 9 8 8 8 8 8 8 10 12 13 15 16 17 19 21 23 24 26 28 29 29 30 29 29
41 40 38 38 34 29 29 32 31 20 6 3 6 6 13 26 29 22 23 28 29 29 29 28 30 33 37 40 38 34 32 33 32 30 29 28 23 19 21 23 25 27 26 26 26 26 26 25 23 22 21 19 17 18 19 19 22 24 25 24 24 24 23 21 19 19 19 17 15 13 12 11 10 10 10 9 9 9 10 11 12 13 15 17 18 19 22 24 25 26 27 28 30 31 31 31 31
41 44 47 45 38 29 19 18 33 34 19 11 7 4 13 24 26 28 30 28 28 33 32 31 33 33 35 37 37 34 31 30 30 30 30 28 22 18 21 24 26 27 26 25 24 24 26 27 26 24 24 22 19 18 20 20 22 24 25 25 25 24 24 22 21 20 18 16 14 13 13 12 12 11 10 10 10 10 11 13 14 15 17 18 20 21 23 26 28 29 29 31 31 32 32 32 32
Wind_Direction
10 359 9 20 33 16 6 5 6 36 42 52 67 93 120 125 102 104 105 95 84 82 106 118 110 123 129 138 154 150 135 133 140 151 143 134 136 136 136 138 144 147 144 140 137 137 139 138 137 137 135 134 132 131 131 130 131 134 135 135 134 134 133 134 133 131 126 120 115 110 107 104 99 94 93 92 90 90 85 78 71 65 60 54 50 49 50 49 50 53 57 57 57 63 67 65 58
3 343 2 5 348 10 11 11 17 27 25 71 87 91 117 128 99 96 104 105 100 101 120 132 133 138 139 137 150 149 133 132 148 151 140 134 135 135 135 135 140 146 146 144 141 140 140 139 136 136 135 132 131 131 133 132 133 135 136 135 135 135 135 135 134 130 125 120 116 112 110 105 98 94 93 93 92 90 84 76 65 56 51 46 43 43 46 49 51 55 58 57 54 56 58 59 56
359 342 356 341 330 346 349 349 353 350 346 95 102 85 107 104 96 96 107 117 119 118 103 115 120 113 140 139 147 159 134 131 151 148 137 134 136 135 135 134 139 144 146 146 143 143 142 140 137 137 137 133 131 132 135 134 135 136 137 137 136 136 135 136 133 129 125 121 118 115 112 105 97 95 94 94 94 89 82 72 60 52 48 44 43 44 49 54 56 59 62 61 53 49 49 53 55
354 331 304 301 324 333 334 334 323 311 327 114 122 108 101 102 108 114 122 123 119 117 76 115 112 91 147 139 146 161 133 130 141 143 133 132 137 135 135 136 138 141 144 146 145 144 143 141 139 139 138 135 133 135 137 136 137 139 140 140 137 136 136 136 134 129 126 124 122 120 114 106 100 97 96 96 92 85 76 65 57 52 50 49 49 51 56 58 60 63 66 64 58 49 46 52 59
344 303 287 318 322 317 317 313 291 287 322 109 129 124 105 110 120 118 124 119 112 93 67 102 116 115 134 127 136 143 132 133 138 141 135 132 136 134 133 136 137 139 142 145 145 144 143 141 141 140 139 138 137 139 139 138 141 142 143 142 139 138 138 137 135 132 131 129 127 123 118 110 103 98 97 95 89 81 68 61 57 54 55 56 56 57 60 60 60 64 67 65 60 53 52 55 61
306 281 312 317 306 304 304 290 279 293 262 110 120 126 112 120 117 112 121 114 88 61 60 49 110 124 119 117 126 128 130 135 136 138 136 133 135 134 134 137 138 139 140 142 143 143 143 142 142 142 142 142 143 143 140 141 143 143 144 143 142 141 140 140 139 138 136 134 131 125 119 112 104 100 98 94 86 72 62 61 58 57 58 60 60 61 61 60 60 61 64 64 59 54 57 59 58
307 301 313 310 307 305 303 292 287 289 163 117 108 122 120 126 121 124 130 102 103 91 110 108 118 125 114 117 122 119 130 134 133 133 133 134 135 136 136 138 139 139 139 139 141 143 144 144 144 144 145 145 146 145 142 144 144 143 144 143 144 143 143 143 143 143 141 137 131 124 118 112 106 101 98 91 78 66 64 64 62 60 60 63 64 63 59 57 61 60 61 61 59 56 59 61 55
325 315 312 317 320 313 310 305 303 287 152 118 104 124 128 132 128 133 128 116 122 120 136 118 136 130 112 122 124 121 133 132 133 130 132 136 134 137 137 139 140 140 139 138 140 142 144 143 144 145 147 148 149 147 144 145 144 144 144 144 145 146 147 146 146 144 142 137 128 120 116 112 106 99 95 83 71 68 69 67 65 65 65 68 66 62 58 56 60 61 60 60 59 58 59 61 56
318 321 319 327 326 319 316 318 316 281 153 121 111 128 134 135 129 135 136 138 142 131 136 130 161 142 120 129 124 123 135 133 135 131 133 135 133 136 135 138 141 142 141 139 140 141 142 141 142 145 147 149 149 148 146 147 146 146 146 147 148 150 150 148 147 144 142 135 124 120 119 114 105 97 89 77 73 75 74 71 71 72 71 71 67 63 61 60 62 60 61 61 60 57 56 57 54
313 320 325 327 323 317 314 317 319 155 138 118 121 139 145 137 135 151 156 164 164 150 153 150 169 152 134 133 122 124 133 135 136 133 135 135 134 135 135 137 141 146 145 142 142 143 142 140 142 144 146 149 150 150 149 150 149 150 151 152 154 154 152 149 147 144 141 133 126 124 124 116 102 93 84 78 80 83 78 75 77 78 76 71 67 63 60 61 63 60 60 61 60 56 52 51 49
297 311 326 321 318 317 322 328 15 120 118 124 131 148 153 146 153 164 169 172 178 182 154 150 163 155 144 134 125 127 131 134 136 135 137 136 136 136 136 137 140 147 149 147 146 146 145 143 144 144 146 148 150 153 153 154 155 156 157 158 159 158 154 150 149 146 142 136 132 130 127 115 100 91 86 86 87 88 82 80 81 81 77 70 68 64 62 62 63 62 61 61 60 57 54 51 49
290 319 330 323 328 331 339 330 181 122 118 134 137 150 153 160 159 165 181 181 191 197 164 157 159 153 145 136 132 135 137 136 138 138 137 138 138 138 139 138 142 147 151 153 151 150 148 147 147 147 149 151 153 155 157 159 160 161 161 162 162 159 155 152 151 148 146 141 135 131 126 113 102 94 88 90 93 92 87 83 82 81 77 72 70 68 66 64 63 62 62 60 58 54 51 49 49
295 328 334 329 332 330 338 324 217 134 126 137 139 147 145 151 149 158 176 162 172 174 154 155 157 155 146 137 137 141 142 141 142 142 141 141 140 140 141 143 146 148 152 156 156 155 152 153 153 153 154 154 156 157 159 160 162 163 164 164 162 159 156 155 154 151 149 144 135 129 125 113 101 94 88 88 93 94 90 87 82 80 78 74 72 69 66 63 61 60 58 54 49 44 40 38 40
296 332 327 334 350 334 345 345 157 135 129 135 121 134 145 144 146 169 177 136 143 162 142 151 161 164 156 143 143 145 146 146 147 147 145 144 143 143 145 146 149 150 153 157 159 158 157 159 158 158 158 157 158 157 159 160 162 163 163 163 161 161 158 156 155 154 152 144 137 130 120 108 98 95 90 84 86 88 87 85 77 76 78 76 75 72 66 63 59 54 50 42 35 29 25 25 31
275 328 323 330 9 339 344 5 145 132 127 123 102 128 148 150 151 165 187 163 156 175 156 150 158 171 172 157 149 148 150 152 152 152 149 147 146 147 149 149 150 152 155 156 160 161 161 163 163 162 161 159 158 156 157 158 159 160 161 162 161 161 158 157 157 156 154 147 140 131 118 106 101 98 89 79 80 80 81 78 69 70 75 76 77 77 71 64 55 46 39 30 24 18 14 18 30
252 310 325 314 342 335 340 31 127 118 124 137 136 142 129 150 165 159 181 196 168 167 157 140 145 171 181 169 154 150 153 155 154 155 154 152 151 151 152 153 154 155 157 157 159 162 163 164 164 163 160 159 158 157 158 157 158 159 160 161 161 161 159 159 161 161 160 155 148 135 122 109 105 96 82 75 80 80 80 76 66 64 68 71 74 76 71 62 50 39 34 26 20 15 15 16 24
246 276 293 300 326 336 12 25 105 117 138 149 158 152 133 145 162 166 176 198 151 140 148 149 150 172 178 170 159 154 156 159 158 159 160 158 157 155 155 158 160 160 159 159 160 162 163 163 163 163 161 160 159 159 160 158 158 159 160 161 161 161 162 164 165 167 166 162 155 140 127 111 100 88 89 81 81 82 78 73 66 59 57 61 63 63 61 57 49 39 33 28 23 18 20 16 14
252 254 272 283 115 130 43 8 53 132 147 130 144 149 151 155 149 164 163 148 131 132 150 161 161 172 174 171 165 160 161 163 162 162 163 163 162 160 159 160 161 162 162 161 163 164 164 164 164 163 162 161 161 161 161 160 160 161 161 161 162 164 166 168 170 172 170 168 162 149 122 97 83 89 96 90 84 79 71 65 61 54 43 44 50 56 59 58 53 42 33 29 27 26 24 18 7
278 263 282 242 169 251 336 334 350 131 117 127 156 163 173 180 163 163 157 146 141 142 147 153 171 174 170 173 171 166 166 167 164 164 165 165 166 164 164 162 160 162 164 164 163 164 165 165 165 164 163 161 162 163 163 162 162 164 165 164 165 168 170 172 175 176 176 173 169 161 108 75 75 91 99 95 86 77 68 58 58 56 49 44 48 59 60 56 52 43 35 28 28 29 24 17 2
284 281 284 252 263 285 273 264 242 172 122 143 173 180 169 179 178 167 162 153 152 159 162 168 180 172 167 174 174 170 170 168 164 166 168 166 168 168 167 163 161 162 163 164 164 164 166 166 165 163 162 163 164 165 165 164 165 167 167 167 169 171 174 177 180 179 179 174 163 154 106 79 80 100 102 91 77 75 75 67 67 67 61 58 57 53 49 53 53 42 32 23 23 24 14 4 356
256 226 10 359 38 244 239 250 229 204 165 160 162 176 176 178 176 175 173 161 163 181 193 194 187 168 171 175 174 174 172 169 166 168 170 170 171 169 168 164 161 163 165 166 167 166 167 166 166 164 164 166 167 167 167 167 168 170 169 171 173 175 178 180 184 181 177 170 154 149 115 97 93 90 85 82 66 57 63 65 74 74 62 56 53 43 38 47 48 38 25 15 16 13 2 353 350
243 231 360 16 44 212 276 279 210 192 188 177 179 192 187 161 167 181 193 210 193 195 212 210 198 178 180 177 174 177 174 171 169 170 173 173 174 172 170 169 168 169 169 170 169 169 169 168 166 167 169 169 169 170 171 171 170 171 172 175 176 177 181 181 182 180 173 160 150 158 141 117 58 29 32 62 58 48 50 59 68 61 53 46 49 47 38 35 28 25 11 2 3 1 355 347 344
242 247 260 264 39 168 197 242 204 191 186 180 203 198 166 156 183 191 217 247 206 198 213 208 204 190 187 182 176 178 176 175 171 171 175 176 179 179 178 177 176 176 173 172 171 171 172 171 170 172 174 174 174 174 174 174 173 173 175 177 178 177 182 183 180 178 174 159 163 182 174 170 9 12 19 29 25 26 42 54 53 38 45 44 47 46 32 24 11 2 349 344 352 354 349 345 345
243 247 253 243 230 149 157 264 226 198 191 188 200 196 176 179 185 186 231 227 195 196 207 204 211 194 188 185 180 179 178 176 174 172 174 178 182 184 184 184 182 182 178 174 173 174 175 175 176 177 180 181 178 177 177 178 176 178 180 181 182 180 184 190 187 188 190 179 188 209 218 250 320 353 7 10 356 349 353 27 42 23 31 25 26 33 17 8 353 337 334 340 350 351 342 340 345
244 241 245 244 228 190 168 225 225 207 201 189 193 204 202 194 184 182 192 182 183 192 199 212 228 192 183 185 181 180 180 177 175 174 175 178 183 187 188 186 185 186 183 179 177 177 179 181 183 184 185 186 182 181 184 184 182 184 187 188 189 188 189 197 203 205 210 211 220 234 241 262 295 320 334 336 327 322 325 355 15 12 13 358 1 12 351 342 337 329 333 338 343 340 333 333 339
239 240 242 240 217 205 198 197 219 211 194 186 194 211 196 195 198 183 163 166 178 197 209 229 239 190 179 183 181 181 181 179 177 178 179 180 183 188 189 188 188 188 185 185 183 182 184 185 187 188 187 189 188 188 192 193 190 193 196 196 195 197 197 200 208 216 222 226 240 259 262 272 279 280 283 291 304 301 315 344 350 352 351 343 352 350 329 327 328 324 327 329 326 328 331 329 335
245 250 245 233 217 221 227 206 222 219 207 200 198 203 189 196 202 180 172 184 197 212 224 235 241 200 182 181 181 182 183 182 181 182 183 184 186 189 191 190 189 189 189 189 188 188 189 189 191 193 191 191 192 191 196 200 197 197 200 202 204 206 207 204 209 219 226 230 242 267 270 277 282 279 286 292 295 299 318 329 328 331 329 337 345 324 313 316 317 318 323 321 315 322 333 331 334
255 262 247 228 222 228 214 209 224 226 218 202 182 188 184 202 213 185 174 183 199 214 229 239 243 206 185 183 181 182 184 183 184 186 188 189 189 190 191 192 192 191 192 192 192 193 193 194 196 197 196 196 199 198 198 201 198 201 203 204 209 214 216 217 222 226 224 231 244 270 277 283 293 287 290 292 293 300 308 308 311 316 313 321 322 306 307 310 311 313 317 315 313 321 330 332 332
257 271 257 233 228 229 216 222 228 224 223 201 171 171 183 211 223 192 181 184 200 214 226 237 240 204 182 182 183 184 187 185 185 188 191 194 193 194 193 193 197 194 193 196 197 198 198 202 202 202 204 204 206 206 206 208 205 210 212 212 219 224 226 231 242 247 236 231 242 266 278 287 293 283 284 293 300 300 296 300 306 306 302 301 297 297 299 300 307 312 312 312 315 322 324 326 327
261 280 271 246 250 250 229 223 219 220 227 206 184 182 193 212 219 197 192 193 203 207 211 222 228 215 189 183 183 184 190 191 189 189 192 197 199 200 197 196 202 200 198 200 200 201 203 206 207 208 209 210 213 213 213 217 217 218 220 221 227 233 238 242 252 262 256 243 241 251 266 282 286 281 283 286 293 293 290 293 295 292 289 286 289 294 294 296 306 310 309 311 315 321 319 321 326
261 278 267 242 257 269 245 222 213 220 222 207 195 191 195 203 206 198 192 190 200 202 203 209 214 215 207 194 183 183 193 197 193 191 193 199 202 204 203 202 205 205 204 203 200 205 210 209 209 210 213 216 219 222 223 224 227 227 228 227 228 234 242 247 254 260 260 253 251 252 259 270 269 270 277 276 278 282 282 284 287 287 285 285 286 287 290 298 303 305 306 308 312 316 315 321 328
254 270 261 235 247 259 250 223 211 221 213 199 193 188 192 197 196 199 195 187 196 203 202 204 206 207 211 209 191 187 194 198 196 196 199 200 203 207 206 205 205 205 207 205 202 207 212 209 207 209 213 220 224 226 227 229 231 232 236 236 234 235 239 244 250 255 259 255 251 253 255 256 256 260 271 274 273 270 272 278 282 283 283 282 281 282 288 293 297 301 305 307 309 312 315 322 327
248 261 254 241 237 242 251 222 209 216 193 186 192 189 192 195 191 201 203 190 192 203 201 202 206 204 207 216 208 194 195 199 196 198 205 203 204 208 206 205 205 202 207 209 207 210 212 206 203 206 211 220 226 227 228 231 232 234 239 240 238 237 237 240 247 254 259 255 247 248 252 256 260 264 269 273 272 267 267 272 278 279 279 278 279 283 286 289 294 300 303 305 308 312 316 319 320
241 242 240 243 240 237 237 203 201 208 185 184 195 191 198 202 190 199 207 196 191 199 202 205 209 205 208 218 217 205 202 205 201 199 206 203 204 208 205 206 209 205 206 211 212 213 214 210 204 205 209 218 227 228 229 233 233 236 239 240 239 235 236 239 245 254 258 256 248 245 253 262 269 267 266 271 271 272 274 279 283 283 283 283 283 285 287 290 295 298 301 304 307 311 313 313 315
231 231 234 242 247 249 238 204 200 199 182 182 191 187 195 203 188 199 208 201 191 199 206 207 209 211 214 220 222 218 212 210 209 206 207 206 205 209 207 208 214 213 210 213 215 215 216 215 212 209 208 217 227 228 228 233 234 236 237 239 239 238 240 241 245 252 254 254 248 243 248 257 267 270 270 273 275 277 280 282 283 283 284 285 288 290 293 295 295 296 301 304 306 312 312 312 317
225 234 237 236 242 256 249 224 204 191 179 180 190 191 192 197 199 205 206 200 192 199 208 208 209 215 219 223 227 231 223 211 211 213 213 212 207 210 212 213 218 220 219 217 216 217 218 218 218 217 211 214 226 231 230 233 236 238 240 241 239 238 242 241 242 246 250 251 246 242 245 251 261 268 271 273 275 278 282 286 284 283 283 285 291 295 296 296 296 296 298 300 305 311 313 314 322
226 238 244 239 236 237 238 235 207 190 186 183 189 199 199 201 208 210 205 201 196 197 207 211 209 215 220 225 232 239 232 210 208 214 217 219 215 213 214 216 221 222 222 223 220 219 221 222 222 223 220 216 225 237 241 240 240 242 246 249 244 239 240 241 242 242 246 249 244 240 244 250 256 262 268 269 271 276 283 288 287 285 285 287 293 295 295 295 294 295 296 302 309 312 315 319 326
228 239 247 251 251 242 242 244 204 190 195 192 193 201 203 205 209 214 208 202 202 200 204 211 211 216 223 228 234 242 239 219 212 213 215 221 221 218 218 219 222 223 223 223 222 221 222 225 225 227 231 225 226 237 246 248 244 242 245 248 244 238 237 239 242 242 242 243 238 234 240 248 253 259 266 268 272 278 282 284 283 283 285 289 292 293 299 298 297 300 305 311 315 317 322 327 330
228 237 245 253 259 257 261 254 204 195 203 200 198 198 202 209 208 210 208 203 209 210 205 209 214 219 224 229 235 240 241 232 221 216 215 221 223 223 222 222 224 226 227 225 223 222 222 226 227 227 234 236 229 232 242 250 247 242 241 241 238 234 234 235 238 239 238 236 230 226 234 245 254 262 266 268 273 278 278 277 276 274 277 284 290 297 305 306 308 313 317 320 322 325 332 338 339
226 233 241 249 254 259 266 260 213 201 204 201 198 197 200 207 202 198 206 208 212 216 212 210 214 221 226 230 236 241 244 239 232 224 220 221 226 228 227 225 226 228 230 230 228 223 223 227 229 230 234 239 237 230 237 245 245 242 238 238 235 230 228 230 234 234 233 235 231 227 234 244 252 259 263 267 270 272 273 270 267 269 275 284 296 310 317 319 327 331 335 338 338 342 344 348 348
225 228 234 243 248 253 259 267 245 204 196 196 195 196 198 202 202 200 206 213 212 214 214 210 212 219 227 232 236 243 246 246 245 238 227 223 227 233 234 231 229 229 232 234 234 229 227 228 231 233 234 239 241 234 233 236 241 243 238 237 239 234 226 224 229 232 233 236 235 231 235 243 252 256 259 264 267 268 268 262 260 271 282 293 307 325 334 341 348 348 351 351 350 353 353 354 356
227 227 229 235 240 249 254 267 267 205 182 188 188 191 199 199 205 208 208 212 211 212 214 213 213 214 221 229 233 238 243 247 252 251 242 231 228 233 238 238 234 232 233 235 236 234 231 231 232 234 235 238 243 241 235 232 239 246 245 243 246 245 235 224 224 232 236 238 239 237 234 240 248 252 254 258 260 258 253 251 255 269 283 305 331 345 355 2 5 3 2 2 2 4 2 2 4
230 227 229 232 235 245 250 256 258 210 186 196 191 195 204 194 203 212 210 209 208 212 216 215 217 217 218 223 228 235 240 245 251 253 253 245 236 234 236 239 239 237 235 235 237 235 233 233 234 236 237 237 241 245 243 237 238 245 251 250 246 243 238 227 222 228 234 238 241 240 238 241 244 246 251 251 247 241 234 230 228 244 284 327 354 358 6 12 14 15 12 10 11 12 11 10 8
231 229 229 233 235 242 247 251 259 239 208 201 194 202 205 191 201 210 212 213 211 214 219 217 217 218 220 222 224 230 238 246 249 251 253 253 247 242 238 239 241 239 236 235 236 236 236 236 237 239 239 237 238 243 247 244 241 245 251 253 248 242 237 230 225 226 231 236 237 237 238 242 244 243 246 241 230 226 223 207 191 206 291 343 1 7 11 14 17 17 11 9 10 9 10 10 9
229 228 228 233 235 241 246 250 260 264 241 207 194 201 206 204 208 209 213 218 217 218 218 217 216 217 221 223 224 227 233 241 246 251 253 254 254 253 250 247 247 243 237 234 234 236 237 237 238 240 240 239 236 239 246 248 244 245 249 250 249 244 237 231 229 226 228 231 233 233 233 239 242 235 229 227 216 211 216 204 184 184 286 336 350 360 6 8 7 5 3 2 3 3 3 3 4
226 227 230 233 234 237 243 246 253 261 256 230 204 198 198 212 207 203 208 215 219 223 220 214 213 215 219 223 225 228 231 234 239 247 252 255 256 257 258 256 252 245 238 236 234 233 235 236 236 237 239 240 238 237 242 247 246 245 247 249 248 245 237 231 228 226 225 227 229 230 226 228 236 227 212 216 210 203 210 207 205 225 219 300 326 341 351 352 349 352 356 356 356 356 355 356 356
224 227 230 235 238 238 240 241 242 249 252 243 220 202 200 209 204 204 210 214 218 223 221 212 209 213 218 221 225 228 230 232 234 239 245 251 255 256 257 255 249 244 240 239 234 232 233 234 234 234 235 238 239 238 239 244 247 246 246 248 248 245 238 229 224 222 223 226 229 228 219 215 226 223 206 209 206 200 209 213 228 255 262 281 310 328 337 338 338 344 347 348 351 351 350 351 350
222 223 228 235 240 240 243 240 232 233 243 243 234 211 209 209 203 208 213 215 216 219 221 217 217 223 223 221 224 228 230 230 232 237 240 243 248 250 250 248 245 243 239 235 233 232 233 234 233 230 230 232 235 236 237 240 244 245 245 245 244 242 236 228 222 220 222 227 229 224 212 207 218 218 204 205 206 200 208 218 229 251 267 288 312 321 327 332 336 341 343 345 348 349 350 352 351
220 220 223 229 234 231 241 242 224 223 235 234 239 237 231 224 215 215 215 214 215 219 224 226 231 235 229 221 223 228 228 228 230 236 238 240 243 245 246 247 244 239 233 231 231 232 233 234 234 230 228 228 231 235 236 237 239 241 242 242 241 238 233 227 222 220 220 223 224 218 207 204 212 213 202 202 205 201 207 216 218 241 266 281 297 310 321 329 336 338 339 341 343 344 347 351 351
215 218 217 218 219 207 221 233 228 237 232 230 236 241 244 241 229 223 221 222 224 226 226 228 233 236 232 227 227 226 226 228 231 236 240 240 242 245 246 248 246 236 228 227 229 232 233 233 234 233 229 227 229 233 235 236 235 236 237 239 238 233 230 225 222 222 218 216 218 213 204 202 207 209 200 196 201 201 207 218 216 229 253 271 286 301 315 324 329 331 333 337 338 339 343 346 347
214 216 217 220 222 220 215 207 213 238 236 233 233 231 234 240 236 232 236 240 237 228 223 226 232 233 232 231 227 223 224 229 233 237 239 240 243 247 247 246 244 237 229 227 229 231 232 231 231 232 230 228 230 231 233 233 231 230 232 234 233 229 225 221 220 223 216 209 212 211 204 201 202 203 196 190 197 199 208 226 230 233 249 269 283 293 303 313 320 324 329 334 338 340 341 341 342
216 211 217 224 223 225 230 227 231 240 248 235 226 224 230 238 241 241 243 243 234 222 219 225 231 230 229 228 224 224 228 229 231 236 239 240 244 248 248 243 237 234 231 225 225 229 230 228 226 228 227 228 230 231 232 232 229 227 227 229 230 224 219 216 217 219 212 203 206 207 202 200 200 197 191 189 192 195 211 227 240 247 257 270 283 290 296 304 312 317 322 328 333 338 339 337 335
215 208 217 223 223 227 235 242 242 244 253 242 231 230 231 235 242 244 246 241 228 221 218 219 225 228 227 223 222 227 228 222 226 237 241 238 240 247 248 238 229 230 230 222 221 226 229 228 225 228 226 225 229 230 229 229 228 225 223 225 225 218 215 215 214 215 209 202 203 203 198 198 199 197 197 201 201 202 214 227 242 254 263 272 281 289 295 301 307 312 315 319 324 331 334 334 332
213 210 219 224 222 226 230 236 241 238 243 240 236 236 230 227 232 241 243 230 213 216 214 208 215 224 224 220 220 225 225 222 230 241 240 234 236 245 246 234 227 230 230 227 225 225 227 228 227 229 227 223 228 232 230 226 224 222 221 222 221 215 214 214 212 213 210 205 203 201 199 200 204 208 209 217 222 223 225 231 244 256 265 273 277 284 291 298 304 310 313 316 319 322 325 328 330
219 217 220 220 217 220 224 227 224 219 233 241 235 239 234 226 228 236 231 212 200 209 212 211 218 221 220 219 218 222 225 229 238 239 233 231 232 233 233 228 228 234 235 234 232 228 227 227 226 230 230 223 224 230 232 227 220 218 218 220 218 213 212 213 211 210 210 209 206 204 207 208 212 221 225 232 242 250 254 250 253 260 267 275 280 284 291 298 303 309 313 315 316 317 318 320 323
218 225 229 223 220 221 221 225 227 218 223 230 236 244 234 225 228 232 217 204 202 210 213 219 225 220 219 219 217 220 226 233 239 236 228 228 226 220 219 220 225 232 236 236 234 229 226 225 225 228 231 228 221 221 225 223 218 216 216 217 216 212 212 213 212 211 212 213 210 210 217 221 223 229 234 244 253 263 274 273 270 272 276 282 289 292 296 300 303 306 310 312 314 316 316 316 317
209 218 227 227 225 223 219 223 227 225 215 185 217 244 236 229 229 233 226 214 219 229 228 222 219 217 219 218 217 222 229 234 234 229 226 227 224 217 217 219 224 228 232 234 232 229 228 228 227 227 230 230 223 218 219 218 214 214 215 216 214 211 212 213 212 214 216 216 216 217 224 230 235 239 242 251 263 271 281 287 286 286 288 291 295 298 298 299 301 302 304 306 309 313 315 314 313
208 212 219 224 226 224 215 214 219 221 225 224 220 247 243 234 228 229 234 234 239 243 234 217 210 212 216 218 220 224 229 233 228 223 226 228 223 217 215 218 223 225 227 229 230 229 230 231 229 227 228 228 223 218 217 217 214 212 214 216 215 213 213 213 214 216 217 219 221 224 229 234 241 250 256 261 271 280 286 291 292 293 295 297 299 301 301 301 302 301 301 301 304 306 309 312 312